Location: Unspecified
(0.0000°N, 0.0000°E)
Time: 19:47:59
(UTC+00:00)

Tiros 1 despin weight - Pass Details

Date: 02 June 2022
Orbit: 591 x 639 km, 48.2° (Epoch: 25 June)

Event Time Altitude Azimuth Distance (km) Brightness Sun altitude
Rises 12:24:04 0° 226° (SW) 2,933 ? 66.9°
Reaches altitude 10° 12:26:26 10° 230° (SW) 2,023 ? 66.7°
Maximum altitude 12:31:01 59° 309° (NW) 735 ? 66.4°
Drops below altitude 10° 12:35:34 10° 28° (NNE) 2,004 ? 66.0°
Sets 12:37:54 0° 32° (NNE) 2,903 ? 65.7°
